Погода в Великих Лучках

Украина / Закарпатская область     48°25′11″N   22°33′32″E
темп.,
°C
ветер,
м/с
пор.,
м/с
влажн.,
%
обл.,
%
осадки,
мм/ч
давл.,
гПа
погр.,
м
20 января, ср
ср2023:00−5юв4896100 2.1 1019346
02:00−5юв5996100 5.1 1018374
05:00−4вюв4896100 3.8 1016359
08:00−4вюв4896100 6.3 1017323
11:00−2вюв4796100 0.7 1019296
14:00−1вюв4696100 0.8 1018258
17:00−1юв4797100 0.0 1019254
20:000юв4698100 0.0 1019204
21 января, чт
чт2123:000юв4898100 0.3 1019310
02:00+1юв4898100 0.5 1018319
05:00+1юв4898100 0.1 1018313
08:00+1юв3897100 0.1 1017261
11:00+1юв41097100 0.1 1016340
14:00+1юв4999100 0.1 1015343
17:00+1юв4799100 0.0 1014217
20:00+1юв3997100 0.0 1014343
22 января, пт
пт2223:00+1юв3797100 0.0 1013222
02:00+1юв3596100 0.0 1013140
05:00+1вюв3692100 0.0 1011160
08:00+1вюв378899 0.0 1011212
11:00+1юв41193100 0.0 1009396
14:00+1вюв3699100 0.6 1008190
17:00+2вюв4899100 3.3 1006196
20:00+2юв51199100 6.8 1006295
23 января, сб
сб2323:00+3юв512100100 1.1 1005322
02:00+3юв4999100 2.4 1004272
05:00+3вюв47100100 3.1 1003153
08:00+3вюв36100100 5.6 1003117
11:00+3вюв3799100 0.9 1002174
14:00+3вюв3897100 1.7 1001218
17:00+4вюв41093100 0.4 997264
20:00+5юв51689100 0.6 997433
24 января, вс
вс2423:00+4юв61497100 6.0 996440
02:00+4юв3698100 9.4 997144
05:00+3юв3698100 0.1 997174
08:00+2вюв3596100 0.1 998134
11:00+3в2297100 1.4 99854
14:00+3вюв2499100 7.2 998121
17:00+2всв2398100 5.1 100074
20:00+2сз2398100 6.1 100284